{"data":{"norad_id":58248,"epoch":"2026-09-19T18:03:39.038688Z","epoch_age_seconds":208176,"freshness":"STALE","line1":"1 58248U 23171U   26262.75253517  .00000567  00000+0  30141-4 0  9994","line2":"2 58248  43.0060 269.2971 0002188 285.7991  74.2619 15.27585131159415","mean_motion":15.27585131,"eccentricity":0.0002188,"inclination_deg":43.006,"raan_deg":269.2971,"arg_perigee_deg":285.7991,"mean_anomaly_deg":74.2619,"bstar":3.0141e-5,"rev_number":15941,"period_min":94.266432081421,"perigee_km":481.53250786662,"apogee_km":484.53495617896,"semimajor_km":6861.1707320228,"source":"CELESTRAK","updated_at":"2026-09-21T09:00:33.839617Z"}}